When you browse on this site, cookies collect data to enhance your experience and personalize the content and advertising you see.
Visit our Privacy Policy to learn more. By continuing to use the site, you agree to this use of cookies and data.
  • In Germany
  • List of Countries
  • For 7 days
  • Water Temperature
  • Weather Map
  • Weather Widgets
  • user-avatar
    Login

    Hourly Weather Majdan

    Today, 2 June, Tuesday

    Time Temperature Precipitation Wind Pressure Humidity
    00:00 +10°C° 0.7 mm 2 mps 753 mmHg 89%
    01:00 +9°C° 0.7 mm 2 mps 753 mmHg 91%
    02:00 +9°C° 0 mm 2 mps 753 mmHg 92%
    03:00 +8°C° 0 mm 2 mps 752 mmHg 92%
    04:00 +8°C° 0 mm 3 mps 752 mmHg 93%
    05:00 +9°C° 0 mm 3 mps 752 mmHg 87%
    06:00 +10°C° 0 mm 4 mps 752 mmHg 81%
    07:00 +11°C° 0 mm 4 mps 752 mmHg 75%
    08:00 +13°C° 0 mm 5 mps 752 mmHg 68%
    09:00 +14°C° 0 mm 5 mps 752 mmHg 61%
    10:00 +15°C° 0 mm 6 mps 751 mmHg 55%
    11:00 +16°C° 0 mm 6 mps 751 mmHg 54%
    12:00 +16°C° 0 mm 6 mps 751 mmHg 54%
    13:00 +17°C° 0 mm 6 mps 751 mmHg 53%
    14:00 +17°C° 0.2 mm 6 mps 750 mmHg 55%
    15:00 +17°C° 0.2 mm 6 mps 750 mmHg 58%
    16:00 +16°C° 0.2 mm 6 mps 749 mmHg 60%
    17:00 +15°C° 0.1 mm 5 mps 749 mmHg 65%
    18:00 +14°C° 0.1 mm 4 mps 749 mmHg 70%
    19:00 +13°C° 0.1 mm 4 mps 749 mmHg 74%
    20:00 +12°C° 0 mm 3 mps 748 mmHg 78%
    21:00 +11°C° 0 mm 3 mps 748 mmHg 82%
    22:00 +10°C° 0 mm 3 mps 748 mmHg 86%
    23:00 +9°C° 0 mm 3 mps 748 mmHg 88%

    Tomorrow, 3 June, Wednesday

    Time Temperature Precipitation Wind Pressure Humidity
    00:00 +9°C° 0 mm 3 mps 748 mmHg 90%
    01:00 +8°C° 0 mm 3 mps 747 mmHg 91%
    02:00 +8°C° 0 mm 3 mps 747 mmHg 91%
    03:00 +8°C° 0 mm 3 mps 747 mmHg 91%
    04:00 +8°C° 0 mm 3 mps 746 mmHg 90%
    05:00 +9°C° 0.1 mm 3 mps 746 mmHg 86%
    06:00 +10°C° 0.1 mm 3 mps 746 mmHg 82%
    07:00 +11°C° 0.1 mm 3 mps 746 mmHg 78%
    08:00 +11°C° 0.3 mm 3 mps 746 mmHg 81%
    09:00 +11°C° 0.3 mm 3 mps 746 mmHg 83%
    10:00 +11°C° 0.3 mm 3 mps 746 mmHg 85%
    11:00 +11°C° 0.1 mm 3 mps 745 mmHg 83%
    12:00 +12°C° 0.1 mm 3 mps 745 mmHg 80%
    13:00 +13°C° 0.1 mm 3 mps 745 mmHg 78%
    14:00 +14°C° 0.1 mm 3 mps 744 mmHg 73%
    15:00 +15°C° 0.1 mm 4 mps 744 mmHg 69%
    16:00 +17°C° 0.1 mm 4 mps 744 mmHg 64%
    17:00 +16°C° 0.1 mm 3 mps 744 mmHg 70%
    18:00 +14°C° 0.1 mm 3 mps 744 mmHg 75%
    19:00 +14°C° 0.1 mm 2 mps 744 mmHg 80%
    20:00 +13°C° 0 mm 2 mps 743 mmHg 83%
    21:00 +12°C° 0 mm 2 mps 743 mmHg 87%
    22:00 +10°C° 0 mm 2 mps 743 mmHg 90%
    23:00 +9°C° 0 mm 2 mps 743 mmHg 91%

    Day after tomorrow, 4 June, Thursday

    Time Temperature Precipitation Wind Pressure Humidity
    00:00 +9°C° 0 mm 2 mps 743 mmHg 92%
    01:00 +9°C° 0 mm 2 mps 743 mmHg 93%
    02:00 +8°C° 0 mm 2 mps 743 mmHg 94%
    03:00 +8°C° 0 mm 2 mps 742 mmHg 94%
    04:00 +9°C° 0 mm 1 mps 742 mmHg 94%
    05:00 +10°C° 0 mm 2 mps 742 mmHg 89%
    06:00 +12°C° 0 mm 2 mps 742 mmHg 83%
    07:00 +14°C° 0 mm 2 mps 742 mmHg 78%
    08:00 +15°C° 0.1 mm 2 mps 742 mmHg 72%
    09:00 +17°C° 0.1 mm 2 mps 742 mmHg 66%
    10:00 +18°C° 0.1 mm 2 mps 741 mmHg 60%
    11:00 +19°C° 0.1 mm 2 mps 741 mmHg 57%
    12:00 +20°C° 0.1 mm 2 mps 741 mmHg 53%
    13:00 +20°C° 0.1 mm 2 mps 741 mmHg 50%
    14:00 +20°C° 0 mm 2 mps 741 mmHg 50%
    15:00 +22°C° 0 mm 1 mps 741 mmHg 50%
    16:00 +22°C° 0 mm 1 mps 740 mmHg 49%
    17:00 +20°C° 0 mm 1 mps 740 mmHg 54%
    18:00 +19°C° 0 mm 1 mps 740 mmHg 59%
    19:00 +18°C° 0 mm 1 mps 740 mmHg 65%
    20:00 +16°C° 0 mm 2 mps 740 mmHg 66%
    21:00 +16°C° 0 mm 2 mps 740 mmHg 68%
    22:00 +14°C° 0 mm 3 mps 740 mmHg 69%
    23:00 +13°C° 0 mm 3 mps 740 mmHg 73%

    5 June, Friday

    Time Temperature Precipitation Wind Pressure Humidity
    00:00 +13°C° 0 mm 3 mps 739 mmHg 77%
    01:00 +12°C° 0 mm 4 mps 739 mmHg 81%
    02:00 +12°C° 0 mm 4 mps 739 mmHg 83%
    03:00 +12°C° 0 mm 4 mps 738 mmHg 85%
    04:00 +12°C° 0 mm 4 mps 738 mmHg 86%
    05:00 +13°C° 0 mm 4 mps 737 mmHg 86%
    06:00 +14°C° 0 mm 5 mps 737 mmHg 85%
    07:00 +16°C° 0 mm 5 mps 737 mmHg 85%
    08:00 +19°C° 0.1 mm 5 mps 737 mmHg 78%
    09:00 +20°C° 0.1 mm 6 mps 737 mmHg 72%
    10:00 +22°C° 0.1 mm 6 mps 737 mmHg 65%
    11:00 +22°C° 0.3 mm 7 mps 737 mmHg 67%
    12:00 +22°C° 0.3 mm 8 mps 738 mmHg 68%
    13:00 +21°C° 0.3 mm 9 mps 738 mmHg 70%
    14:00 +21°C° 0 mm 7 mps 739 mmHg 69%
    15:00 +21°C° 0 mm 6 mps 739 mmHg 68%
    16:00 +21°C° 0 mm 5 mps 739 mmHg 67%
    17:00 +20°C° 0 mm 4 mps 740 mmHg 72%
    18:00 +19°C° 0 mm 3 mps 740 mmHg 76%
    19:00 +18°C° 0 mm 2 mps 740 mmHg 80%
    20:00 +17°C° 0.3 mm 2 mps 741 mmHg 83%
    21:00 +16°C° 0.3 mm 2 mps 741 mmHg 87%
    22:00 +16°C° 0.3 mm 2 mps 741 mmHg 90%
    23:00 +14°C° 2.8 mm 4 mps 741 mmHg 91%

    6 June, Saturday

    Time Temperature Precipitation Wind Pressure Humidity
    00:00 +14°C° 2.8 mm 5 mps 741 mmHg 93%
    01:00 +13°C° 2.8 mm 6 mps 741 mmHg 95%
    02:00 +13°C° 2.2 mm 5 mps 741 mmHg 94%
    03:00 +12°C° 2.2 mm 5 mps 741 mmHg 94%
    04:00 +11°C° 2.2 mm 4 mps 741 mmHg 94%
    05:00 +12°C° 0.4 mm 3 mps 742 mmHg 93%
    06:00 +13°C° 0.4 mm 2 mps 742 mmHg 92%
    07:00 +13°C° 0.4 mm 2 mps 743 mmHg 90%
    08:00 +15°C° 0 mm 2 mps 743 mmHg 82%
    09:00 +16°C° 0 mm 3 mps 744 mmHg 74%
    10:00 +18°C° 0 mm 3 mps 744 mmHg 66%
    11:00 +19°C° 0.1 mm 5 mps 744 mmHg 62%
    12:00 +20°C° 0.1 mm 6 mps 744 mmHg 59%
    13:00 +20°C° 0.1 mm 7 mps 744 mmHg 55%
    14:00 +20°C° 0.1 mm 7 mps 744 mmHg 56%
    15:00 +20°C° 0.1 mm 7 mps 744 mmHg 57%
    16:00 +20°C° 0.1 mm 6 mps 744 mmHg 58%
    17:00 +19°C° 0 mm 5 mps 745 mmHg 62%
    18:00 +19°C° 0 mm 4 mps 745 mmHg 67%
    19:00 +18°C° 0 mm 3 mps 745 mmHg 71%
    20:00 +17°C° 0 mm 3 mps 746 mmHg 74%
    21:00 +16°C° 0 mm 3 mps 747 mmHg 78%
    22:00 +14°C° 0 mm 3 mps 747 mmHg 81%
    23:00 +13°C° 0 mm 3 mps 747 mmHg 82%

    7 June, Sunday

    Time Temperature Precipitation Wind Pressure Humidity
    00:00 +13°C° 0 mm 3 mps 748 mmHg 82%
    01:00 +12°C° 0 mm 3 mps 748 mmHg 83%
    02:00 +12°C° 0 mm 3 mps 748 mmHg 82%
    03:00 +14°C° 0 mm 2 mps 749 mmHg 81%
    04:00 +14°C° 0 mm 2 mps 749 mmHg 80%
    05:00 +14°C° 0 mm 3 mps 749 mmHg 77%
    06:00 +17°C° 0 mm 3 mps 749 mmHg 75%
    07:00 +18°C° 0 mm 3 mps 750 mmHg 73%
    08:00 +19°C° 0 mm 3 mps 750 mmHg 70%
    09:00 +19°C° 0 mm 3 mps 750 mmHg 68%
    10:00 +20°C° 0 mm 4 mps 750 mmHg 65%
    11:00 +21°C° 0 mm 3 mps 750 mmHg 65%
    12:00 +21°C° 0 mm 3 mps 750 mmHg 64%
    13:00 +21°C° 0 mm 3 mps 750 mmHg 64%
    14:00 +22°C° 0.2 mm 3 mps 750 mmHg 64%
    15:00 +22°C° 0.2 mm 3 mps 750 mmHg 65%
    16:00 +22°C° 0.2 mm 3 mps 750 mmHg 65%
    17:00 +21°C° 0.9 mm 2 mps 750 mmHg 72%
    18:00 +21°C° 0.9 mm 1 mps 750 mmHg 80%
    19:00 +19°C° 0.9 mm 1 mps 750 mmHg 87%
    20:00 +19°C° 0.3 mm 1 mps 750 mmHg 87%
    21:00 +19°C° 0.3 mm 1 mps 750 mmHg 87%
    22:00 +17°C° 0.3 mm 2 mps 750 mmHg 87%
    23:00 +17°C° 0.5 mm 2 mps 750 mmHg 89%
    Show more